Weather History for KCNI - September, 2013

Change the Weather History Date:

Sunday, September 22, 2013

  Actual Average (KGVL) Record (KGVL)
Temperature  
Mean Temperature 66 °F 70 °F  
Max Temperature 78 °F 79 °F 95 °F (1955)
Min Temperature 53 °F 61 °F 35 °F (1938)
Degree Days  
Heating Degree Days 0 1  
Month to date heating degree days 2  
Since 1 July heating degree days 2  
Cooling Degree Days 0 5  
Month to date cooling degree days 183  
Year to date cooling degree days 1509  
Growing Degree Days 16 (Base 50)    
Moisture  
Dew Point 54 °F    
Average Humidity 73    
Maximum Humidity 94    
Minimum Humidity 39    
Precipitation  
Precipitation 0.00 in 0.15 in 2.36 in (1989)
Month to date precipitation 3.42  
Year to date precipitation 39.67  
Sea Level Pressure  
Sea Level Pressure 29.85 in    
Wind  
Wind Speed 2 mph (WNW)    
Max Wind Speed 6 mph    
Max Gust Speed -    
Visibility 8 miles    
Events      
T = Trace of Precipitation, MM = Missing Value Source: NWS Daily Summary

Daily Weather History Graph

Daily Weather History Graph

Search for Another Location

Airport or City:

Trip Planner

Search our weather history database for the weather conditions in past years. The results will help you decide how hot, cold, wet, or windy it might be!

Date:

Astronomy

Sep. 22, 2013 Rise Set
Actual Time 7:25 AM EDT 7:34 PM EDT
Civil Twilight 7:00 AM EDT 7:59 PM EDT
Nautical Twilight 6:31 AM EDT 8:28 PM EDT
Astronomical Twilight 6:02 AM EDT 8:57 PM EDT
Moon 9:34 PM EDT (9/22) 10:35 AM EDT (9/22)
Length of Visible Light 12h 58m
Length of Day
12h 08m
Waning Gibbous, 89% of the Moon is Illuminated
Sep 22
Waning Gibbous
Sep 26
Last Quarter
Oct 4
New
Oct 11
First Quarter
Oct 18
Full

Hourly Weather History & Observations

Time (EDT) Temp. Dew Point Humidity Pressure Visibility Wind Dir Wind Speed Gust Speed Precip Events Conditions
12:15 AM 62.6 °F 60.8 °F 94% 29.81 in 2.5 mi NW 4.6 mph - N/A   Clear
12:35 AM 60.8 °F 59.0 °F 94% 29.81 in 5.0 mi NW 4.6 mph - N/A   Clear
12:55 AM 60.8 °F 59.0 °F 94% 29.80 in 7.0 mi NW 4.6 mph - N/A   Clear
1:15 AM 60.8 °F 59.0 °F 94% 29.80 in 10.0 mi NW 5.8 mph - N/A   Clear
1:35 AM 59.0 °F 57.2 °F 94% 29.80 in 10.0 mi WNW 3.5 mph - N/A   Clear
1:55 AM 59.0 °F 57.2 °F 94% 29.81 in 7.0 mi Calm Calm - N/A   Clear
2:15 AM 59.0 °F 55.4 °F 88% 29.82 in 7.0 mi Calm Calm - N/A   Clear
2:35 AM 59.0 °F 55.4 °F 88% 29.82 in 7.0 mi Calm Calm - N/A   Clear
2:55 AM 59.0 °F 55.4 °F 88% 29.81 in 3.0 mi Calm Calm - N/A   Clear
3:15 AM 59.0 °F 55.4 °F 88% 29.80 in 7.0 mi Calm Calm - N/A   Clear
3:35 AM 59.0 °F 55.4 °F 88% 29.80 in 2.5 mi Calm Calm - N/A   Clear
3:55 AM 57.2 °F 55.4 °F 94% 29.80 in 2.5 mi Calm Calm - N/A   Clear
4:15 AM 57.2 °F 55.4 °F 94% 29.80 in 1.8 mi Calm Calm - N/A   Mist
4:35 AM 55.4 °F 53.6 °F 94% 29.80 in 3.0 mi Calm Calm - N/A   Clear
4:55 AM 55.4 °F 53.6 °F 94% 29.80 in 2.5 mi Calm Calm - N/A   Clear
5:15 AM 55.4 °F 53.6 °F 94% 29.80 in 4.0 mi Calm Calm - N/A   Clear
5:35 AM 55.4 °F 53.6 °F 94% 29.81 in 1.8 mi Calm Calm - N/A   Mist
5:55 AM 55.4 °F 53.6 °F 94% 29.82 in 4.0 mi Calm Calm - N/A   Clear
6:15 AM 55.4 °F 53.6 °F 94% 29.82 in 7.0 mi Calm Calm - N/A   Clear
6:35 AM 53.6 °F 51.8 °F 94% 29.82 in 5.0 mi Calm Calm - N/A   Clear
6:55 AM 55.4 °F 53.6 °F 94% 29.83 in 10.0 mi Calm Calm - N/A   Clear
7:15 AM 53.6 °F 51.8 °F 94% 29.83 in 1.8 mi Calm Calm - N/A   Mist
7:35 AM 53.6 °F 51.8 °F 94% 29.83 in 4.0 mi Calm Calm - N/A   Clear
7:55 AM 53.6 °F 51.8 °F 94% 29.84 in 1.2 mi Calm Calm - N/A   Mist
8:15 AM 53.6 °F 51.8 °F 94% 29.84 in 1.0 mi Calm Calm - N/A   Mist
8:35 AM 55.4 °F 53.6 °F 94% 29.85 in 7.0 mi Calm Calm - N/A   Clear
8:55 AM 57.2 °F 53.6 °F 88% 29.85 in 10.0 mi Calm Calm - N/A   Clear
9:15 AM 59.0 °F 55.4 °F 88% 29.86 in 10.0 mi Calm Calm - N/A   Clear
9:35 AM 60.8 °F 57.2 °F 88% 29.87 in 10.0 mi Calm Calm - N/A   Clear
9:55 AM 62.6 °F 59.0 °F 88% 29.87 in 10.0 mi Calm Calm - N/A   Clear
10:15 AM 64.4 °F 57.2 °F 77% 29.87 in 10.0 mi Calm Calm - N/A   Clear
10:35 AM 66.2 °F 55.4 °F 68% 29.88 in 10.0 mi Calm Calm - N/A   Clear
10:55 AM 68.0 °F 53.6 °F 60% 29.88 in 10.0 mi Calm Calm - N/A   Clear
11:15 AM 71.6 °F 50.0 °F 46% 29.88 in 10.0 mi NNE 3.5 mph - N/A   Clear
11:35 AM 71.6 °F 51.8 °F 50% 29.88 in 10.0 mi Calm Calm - N/A   Clear
11:55 AM 71.6 °F 51.8 °F 50% 29.88 in 10.0 mi Calm Calm - N/A   Clear
12:15 PM 71.6 °F 51.8 °F 50% 29.88 in 10.0 mi ESE 3.5 mph - N/A   Scattered Clouds
12:35 PM 73.4 °F 53.6 °F 50% 29.89 in 10.0 mi South 4.6 mph - N/A   Clear
12:55 PM 73.4 °F 53.6 °F 50% 29.89 in 10.0 mi Calm Calm - N/A   Clear
1:15 PM 73.4 °F 55.4 °F 53% 29.88 in 10.0 mi Calm Calm - N/A   Scattered Clouds
1:35 PM 71.6 °F 53.6 °F 53% 29.88 in 10.0 mi Calm Calm - N/A   Scattered Clouds
1:55 PM 77.0 °F 53.6 °F 44% 29.88 in 10.0 mi West 4.6 mph - N/A   Scattered Clouds
2:15 PM 73.4 °F 53.6 °F 50% 29.87 in 10.0 mi Calm Calm - N/A   Clear
2:35 PM 77.0 °F 51.8 °F 41% 29.87 in 10.0 mi West 4.6 mph - N/A   Clear
2:55 PM 77.0 °F 50.0 °F 39% 29.86 in 10.0 mi Calm Calm - N/A   Scattered Clouds
3:15 PM 78.8 °F 53.6 °F 42% 29.86 in 10.0 mi WNW 4.6 mph - N/A   Scattered Clouds
3:35 PM 77.0 °F 53.6 °F 44% 29.86 in 10.0 mi WNW 3.5 mph - N/A   Scattered Clouds
3:55 PM 77.0 °F 53.6 °F 44% 29.85 in 10.0 mi NW 4.6 mph - N/A   Clear
4:15 PM 73.4 °F 53.6 °F 50% 29.86 in 10.0 mi WNW 4.6 mph - N/A   Clear
4:35 PM 73.4 °F 53.6 °F 50% 29.86 in 10.0 mi Calm Calm - N/A   Clear
4:55 PM 77.0 °F 53.6 °F 44% 29.85 in 10.0 mi Calm Calm - N/A   Clear
5:15 PM 73.4 °F 51.8 °F 47% 29.85 in 10.0 mi NNW 3.5 mph - N/A   Clear
5:35 PM 73.4 °F 53.6 °F 50% 29.86 in 10.0 mi NW 4.6 mph - N/A   Clear
5:55 PM 71.6 °F 51.8 °F 50% 29.86 in 10.0 mi WNW 3.5 mph - N/A   Clear
6:15 PM 71.6 °F 53.6 °F 53% 29.86 in 10.0 mi Calm Calm - N/A   Clear
6:35 PM 71.6 °F 53.6 °F 53% 29.86 in 10.0 mi Calm Calm - N/A   Clear
6:55 PM 69.8 °F 53.6 °F 56% 29.86 in 10.0 mi Calm Calm - N/A   Clear
7:15 PM 68.0 °F 55.4 °F 64% 29.86 in 10.0 mi Calm Calm - N/A   Clear
7:35 PM 66.2 °F 55.4 °F 68% 29.87 in 10.0 mi Calm Calm - N/A   Clear
7:55 PM 64.4 °F 55.4 °F 73% 29.87 in 10.0 mi WNW 3.5 mph - N/A   Clear
8:15 PM 64.4 °F 55.4 °F 73% 29.87 in 10.0 mi Calm Calm - N/A   Clear
8:35 PM 62.6 °F 55.4 °F 77% 29.88 in 10.0 mi Calm Calm - N/A   Clear
8:55 PM 62.6 °F 55.4 °F 77% 29.88 in 10.0 mi Calm Calm - N/A   Clear
9:15 PM 62.6 °F 55.4 °F 77% 29.89 in 10.0 mi Calm Calm - N/A   Clear
9:35 PM 62.6 °F 55.4 °F 77% 29.89 in 10.0 mi Calm Calm - N/A   Clear
9:55 PM 62.6 °F 53.6 °F 72% 29.89 in 10.0 mi Calm Calm - N/A   Clear
10:15 PM 60.8 °F 55.4 °F 82% 29.89 in 10.0 mi Calm Calm - N/A   Clear
10:35 PM 60.8 °F 55.4 °F 82% 29.90 in 10.0 mi Calm Calm - N/A   Clear
10:55 PM 60.8 °F 53.6 °F 77% 29.90 in 10.0 mi Calm Calm - N/A   Clear
11:15 PM 60.8 °F 55.4 °F 82% 29.91 in 10.0 mi Calm Calm - N/A   Clear
11:35 PM 60.8 °F 53.6 °F 77% 29.91 in 10.0 mi Calm Calm - N/A   Clear
11:55 PM 59.0 °F 55.4 °F 88% 29.92 in 10.0 mi Calm Calm - N/A   Clear